Regional Weather Roundup
Issued by NWS

Home | Current Version | Previous Version | Text Only | Print | Product List | Glossary On
Versions: 1 2 3 4 5 6 7 8 9 10 11 12 13 14 15 16 17 18 19 20 21 22 23 24 25 26 27 28 29 30 31 32 33 34 35 36 37 38 39 40 41 42 43 44 45 46 47 48 49 50
000
ASCA44 KEWX 271520
RWRMX

LATIN AMERICA AND CARIBBEAN REGIONAL WEATHER ROUNDUP
NATIONAL WEATHER SERVICE AUSTIN/SAN ANTONIO TX
1000 AM CDT MON MAR 27 2017

NOTE: "FAIR" INDICATED FEW OR NO CLOUDS BELOW 12,000 FEET WITH NO
SIGNIFICANT WEATHER AND/OR OBSTRUCTIONS TO VISIBILITY.

BAJA CALIFORNIA

CITY           SKY/WX    TMP DP  RH WIND       PRES   REMARKS
LORETO         SUNNY     70  54  56 CALM      29.91R
LA PAZ         SUNNY     57  54  88 S12       29.97S
MEXICALI       SUNNY     66  43  42 W12       29.90R
S.J. DEL CABO  SUNNY     70  59  68 W9        29.96R
TIJUANA        MOSUNNY   55  50  82 CALM      30.06R

NORTHWESTERN MEXICO

CITY           SKY/WX    TMP DP  RH WIND       PRES   REMARKS
CULIACAN       SUNNY     68  50  52 CALM      29.92R
DURANGO        SUNNY     54  28  37 SW3       30.23R
GUAYMAS        SUNNY     66  48  52 CALM      29.88R
HERMOSILLO     SUNNY     66  43  42 CALM      29.95R
CD. JUAREZ     MOSUNNY   61  32  33 S7        29.96R
LOS MOCHIS     SUNNY     63  59  88 CALM      29.93R
OBREGON        SUNNY     64  41  42 E2        29.89R

NORTHEASTERN MEXICO

CITY           SKY/WX    TMP DP  RH WIND       PRES   REMARKS
CHIHUAHUA      MOSUNNY   61  23  23 CALM      30.09R
MATAMOROS      PTSUNNY   79  73  83 S8        29.85R
MONCLOVA       MOSUNNY   70  43  37 E13       29.90R
MONTERREY      SUNNY     73  66  78 N6        29.85R HAZE
NUEVO LAREDO   PTSUNNY   72  66  83 CALM      29.87R
PIEDRAS NEGRAS CLOUDY    70  66  88 E7        29.90R FOG
REYNOSA        PTSUNNY   73  66  78 SE12G25   29.84R
SALTILLO       SUNNY     75  41  29 SW12      30.11R
TORREON        SUNNY     72  32  23 W7        30.05R
CD. VICTORIA   SUNNY     75  64  69 S16       29.83R

WESTERN MEXICO

CITY           SKY/WX    TMP DP  RH WIND       PRES   REMARKS
AGUASCALIENTES SUNNY     61  36  39 S7        30.25R
COLIMA         SUNNY     75  57  53 CALM      30.01R
DEL BAJIO      SUNNY     63  46  55 CALM      30.29R
GUADALAJARA    SUNNY     66  43  42 CALM      30.19R
MANZANILLO     SUNNY     70  64  83 N7        29.91R
MAZATLAN       SUNNY     66  59  77 CALM      29.98R
P. VALLARTA    SUNNY     70  61  73 N5        29.93R
URUAPAN        SUNNY     61  55  82 CALM      30.16R
ZACATECAS      SUNNY     52  23  32 S8        30.26R

CENTRAL MEXICO

CITY           SKY/WX    TMP DP  RH WIND       PRES   REMARKS
CUERNAVACA     SUNNY     73  50  43 CALM      30.12R
MEXICO CITY    SUNNY     61  45  55 SE3       30.32R
MORELIA        SUNNY     61  46  59 N2        30.25R
POZA RICA      SUNNY     75  72  88 N5        29.84S
PUEBLA         SUNNY     57  45  62 N5        30.32R
QUERETARO      SUNNY     59  50  72 CALM      30.30R
S. LUIS POTOSI SUNNY     64  34  32 SW6       30.19R
TAMPICO        MOSUNNY   79  72  78 S9        29.82R
TOLUCA         SUNNY     55  41  58 CALM      30.40R

SOUTHERN MEXICO

CITY           SKY/WX    TMP DP  RH WIND       PRES   REMARKS
ACAPULCO       MOSUNNY   82  73  74 N3        29.90R
B. DE HUATULCO SUNNY     79  64  61 E7        29.95R
OAXACA         SUNNY     63  50  63 N5        30.20R
P. ESCONDIDO   SUNNY     82  72  69 CALM      29.98R
VERACRUZ       SUNNY     81  66  61 SW6       29.83R
ZIHUATANEJO    SUNNY     81  68  65 CALM      29.93R

YUCATAN PENINSULA

CITY           SKY/WX    TMP DP  RH WIND       PRES   REMARKS
CAMPECHE       SUNNY     79  66  65 E14G29    29.89S
CANCUN         PTSUNNY   82  68  61 E14       30.01R
CHETUMAL       MOSUNNY   81  70  69 SE12      29.96R
CD. DEL CARMEN SUNNY     79  66  65 SE21      29.89R
COZUMEL        MOSUNNY   82  68  61 E12       29.99R
MERIDA         PTSUNNY   82  66  57 E15       29.96S
MINATITLAN     PTSUNNY   75  73  94 SW9       29.83R FOG
TAPACHULA      MOSUNNY   82  75  78 NW2       29.90R
TUX. GUTIERREZ MOSUNNY   79  63  57 NE6       29.96R
VILLAHERMOSA   SUNNY     77  66  69 CALM      29.88R

CENTRAL AMERICA

CITY           SKY/WX    TMP DP  RH WIND       PRES   REMARKS
BELIZE CITY    MOSUNNY   82  72  69 SE9       29.95R
MANAGUA        MOSUNNY   84  66  54 E16       29.94R

CARIBBEAN

CITY           SKY/WX    TMP DP  RH WIND       PRES   REMARKS
ARUBA          MOSUNNY   88  73  62 E13       29.92F HX  96
CURACAO        MOSUNNY   84  75  74 E10       29.94S HX  92
KINGSTON       MOSUNNY   81  70  69 S7        29.97R
NASSAU         LGT RAIN  79  63  57 NE6       30.07R
SAN JUAN       LGT RAIN  79  75  89 NW13      29.96R
SANTO DOMINGO  MOSUNNY   84  73  70 SE5       29.94  HX  91
ST. CROIX      MOSUNNY   82  73  74 S9        29.99R
ST. KITTS      MOSUNNY   82  72  69 S8        29.97S
ST. MAARTEN    MOSUNNY   82  75  78 SE9       29.97S
ST. THOMAS     MOSUNNY   81  75  83 S10       29.98R

$$




USA.gov is the U.S. government's official web portal to all federal, state and local government web resources and services.